Location: ??
(34.9170°N, 135.5016°E)
Time: 09:51:40
(UTC+00:00)

Altair - Visible Passes

Search period start: 01 March 2021 00:00
Search period end: 11 March 2021 00:00
Orbit: 1501 x 1682 km, 47.2° (Epoch: 28 February)

Date Brightness Start Highest point End Pass type
(mag) Time Alt. Az. Time Alt. Az. Time Alt. Az.
01 Mar 7.5 09:48:39 10° SW 09:57:51 88° NW 10:07:09 11° NE visible
01 Mar 8.2 11:54:44 10° W 12:03:29 44° NNW 12:05:12 40° NNE visible
01 Mar 9.4 14:01:19 10° WNW 14:03:14 17° NW 14:03:14 17° NW visible
01 Mar 9.4 18:28:28 12° S 18:28:28 12° S 18:29:00 10° S visible
02 Mar 7.5 09:23:30 10° SW 09:32:41 86° SE 09:42:08 10° NE visible
02 Mar 8.2 11:29:24 10° W 11:38:11 45° NNW 11:41:38 34° NNE visible
02 Mar 9.1 13:36:04 10° WNW 13:39:40 24° NW 13:39:40 24° NW visible
03 Mar 8.1 11:04:05 10° W 11:12:54 47° NNW 11:18:00 26° NE visible
03 Mar 8.8 13:10:49 10° WNW 13:16:02 31° NNW 13:16:02 31° NNW visible
04 Mar 8.1 10:38:45 10° W 10:47:37 48° NNW 10:54:20 19° NE visible
04 Mar 8.5 12:45:33 10° WNW 12:52:22 37° NNW 12:52:22 37° NNW visible
05 Mar 8.1 10:13:27 10° W 10:22:20 50° NNW 10:30:37 13° NE visible
05 Mar 8.3 12:20:17 10° WNW 12:28:39 39° N 12:28:39 39° N visible
05 Mar 9.6 14:25:42 10° NW 14:26:40 14° NW 14:26:40 14° NW visible
06 Mar 8.0 09:48:09 10° W 09:57:04 53° NNW 10:06:16 10° NE visible
06 Mar 8.2 11:55:01 10° WNW 12:03:35 39° N 12:04:53 37° NNE visible
06 Mar 9.3 14:00:32 10° NW 14:02:55 20° NW 14:02:55 20° NW visible
07 Mar 8.0 09:22:51 10° W 09:31:49 55° NNW 09:41:01 10° NE visible
07 Mar 8.3 11:29:43 10° WNW 11:38:15 39° N 11:41:07 32° NE visible
07 Mar 8.9 13:35:21 10° NW 13:39:08 27° NW 13:39:08 27° NW visible
08 Mar 8.3 11:04:24 10° WNW 11:12:55 39° N 11:17:20 26° NE visible
08 Mar 8.6 13:10:11 10° NW 13:15:21 35° NW 13:15:21 35° NW visible
09 Mar 8.3 10:39:06 10° WNW 10:47:36 39° N 10:53:31 20° NE visible
09 Mar 8.3 12:45:00 10° NW 12:51:32 43° NNW 12:51:32 43° NNW visible
10 Mar 8.3 10:13:47 10° WNW 10:22:17 39° N 10:29:43 14° ENE visible
10 Mar 8.0 12:19:49 10° NW 12:27:44 48° N 12:27:44 48° N visible
10 Mar 9.5 14:24:37 10° WNW 14:25:45 15° WNW 14:25:45 15° WNW visible
